Weather History for Shenandoah, IA

Change the Weather History Date:

Thursday, September 4, 2014

  Actual Average Record
Temperature  
Mean Temperature 83 °F -  
Max Temperature 93 °F 83 °F 100 °F (1954)
Min Temperature 73 °F 60 °F 42 °F (1974)
Cooling Degree Days 18    
Growing Degree Days 33 (Base 50)    
Moisture  
Dew Point 73 °F    
Average Humidity 75    
Maximum Humidity 94    
Minimum Humidity 52    
Precipitation  
Precipitation 0.00 in - - ()
Sea Level Pressure  
Sea Level Pressure 29.80 in    
Wind  
Wind Speed 12 mph (South)    
Max Wind Speed 20 mph    
Max Gust Speed 29 mph    
Visibility 10 miles    
Events      
Averages and records for this station are not official NWS values.
T = Trace of Precipitation, MM = Missing Value Source: NWS Daily Summary

Daily Weather History Graph

Daily Weather History Graph

Search for Another Location

Airport:

Trip Planner

Search our weather history database for the weather conditions in past years. The results will help you decide how hot, cold, wet, or windy it might be!

Date:

Astronomy

Sep. 04, 2014 Rise Set
Actual Time 6:51 AM CDT 7:48 PM CDT
Civil Twilight 6:23 AM CDT 8:16 PM CDT
Nautical Twilight 5:50 AM CDT 8:49 PM CDT
Astronomical Twilight 5:15 AM CDT 9:24 PM CDT
Moon 4:28 PM CDT (9/4) 1:42 AM CDT (9/4)
Length of Visible Light 13h 53m
Length of Day
12h 57m
Waxing Gibbous, 74% of the Moon is Illuminated
Sep 4
Waxing Gibbous
Sep 8
Full
Sep 15
Last Quarter
Sep 24
New
Oct 1
First Quarter

Hourly Weather History & Observations

Time (CDT) Temp. Heat Index Dew Point Humidity Pressure Visibility Wind Dir Wind Speed Gust Speed Precip Events Conditions
12:15 AM 78.8 °F - 75.2 °F 89% 29.75 in 10.0 mi South 15.0 mph 20.7 mph N/A   Clear
12:35 AM 78.8 °F - 75.2 °F 89% 29.75 in 10.0 mi South 15.0 mph 21.9 mph N/A   Clear
12:55 AM 78.8 °F - 75.2 °F 89% 29.76 in 10.0 mi South 12.7 mph 19.6 mph N/A   Clear
1:15 AM 78.8 °F - 75.2 °F 89% 29.76 in 10.0 mi South 12.7 mph 19.6 mph N/A   Clear
1:35 AM 77.0 °F - 73.4 °F 89% 29.76 in 10.0 mi South 12.7 mph 18.4 mph N/A   Clear
1:55 AM 77.0 °F - 73.4 °F 89% 29.76 in 10.0 mi South 10.4 mph 17.3 mph N/A   Clear
2:15 AM 77.0 °F - 73.4 °F 89% 29.76 in 10.0 mi South 11.5 mph - N/A   Clear
2:35 AM 77.0 °F - 73.4 °F 89% 29.76 in 10.0 mi South 9.2 mph - N/A   Clear
2:55 AM 77.0 °F - 73.4 °F 89% 29.76 in 10.0 mi South 9.2 mph 16.1 mph N/A   Clear
3:15 AM 77.0 °F - 73.4 °F 89% 29.77 in 10.0 mi South 10.4 mph - N/A   Clear
3:35 AM 77.0 °F - 73.4 °F 89% 29.76 in 10.0 mi South 9.2 mph 15.0 mph N/A   Clear
3:55 AM 77.0 °F - 73.4 °F 89% 29.76 in 10.0 mi South 11.5 mph - N/A   Clear
4:15 AM 75.2 °F - 73.4 °F 94% 29.76 in 10.0 mi South 9.2 mph - N/A   Unknown
4:35 AM 75.2 °F - 71.6 °F 89% 29.75 in 10.0 mi South 9.2 mph - N/A   Unknown
4:55 AM 75.2 °F - 71.6 °F 89% 29.76 in 10.0 mi South 9.2 mph - N/A   Unknown
5:15 AM 75.2 °F - 71.6 °F 89% 29.76 in 10.0 mi South 9.2 mph - N/A   Unknown
5:35 AM 75.2 °F - 71.6 °F 89% 29.76 in 10.0 mi South 9.2 mph - N/A   Unknown
5:55 AM 75.2 °F - 71.6 °F 89% 29.76 in 10.0 mi South 10.4 mph - N/A   Clear
6:15 AM 75.2 °F - 71.6 °F 89% 29.76 in 10.0 mi South 10.4 mph - N/A   Clear
6:35 AM 75.2 °F - 69.8 °F 83% 29.76 in 10.0 mi South 10.4 mph - N/A   Clear
7:15 AM 75.2 °F - 69.8 °F 83% 29.77 in 10.0 mi South 11.5 mph - N/A   Clear
7:35 AM 75.2 °F - 69.8 °F 83% 29.77 in 10.0 mi South 12.7 mph - N/A   Clear
7:55 AM 75.2 °F - 69.8 °F 83% 29.77 in 10.0 mi South 9.2 mph 16.1 mph N/A   Clear
8:15 AM 77.0 °F - 69.8 °F 78% 29.77 in 10.0 mi South 9.2 mph - N/A   Clear
8:35 AM 78.8 °F - 71.6 °F 78% 29.77 in 10.0 mi South 11.5 mph 19.6 mph N/A   Clear
8:55 AM 78.8 °F - 71.6 °F 78% 29.78 in 10.0 mi South 12.7 mph - N/A   Clear
9:15 AM 80.6 °F 83.9 °F 69.8 °F 70% 29.78 in 10.0 mi South 17.3 mph - N/A   Clear
9:35 AM 80.6 °F 84.6 °F 71.6 °F 74% 29.78 in 10.0 mi SSW 18.4 mph - N/A   Clear
9:55 AM 82.4 °F 87.2 °F 71.6 °F 70% 29.78 in 10.0 mi SSW 18.4 mph - N/A   Clear
10:15 AM 82.4 °F 87.2 °F 71.6 °F 70% 29.79 in 10.0 mi South 13.8 mph 20.7 mph N/A   Clear
10:35 AM 82.4 °F 87.2 °F 71.6 °F 70% 29.79 in 10.0 mi South 16.1 mph - N/A   Clear
10:55 AM 84.2 °F 89.6 °F 71.6 °F 66% 29.80 in 10.0 mi South 18.4 mph 24.2 mph N/A   Clear
11:15 AM 86.0 °F 91.8 °F 71.6 °F 62% 29.83 in 10.0 mi SW 13.8 mph - N/A   Clear
11:35 AM 86.0 °F 93.4 °F 73.4 °F 66% 29.81 in 10.0 mi South 12.7 mph 21.9 mph N/A   Clear
11:55 AM 87.8 °F 97.6 °F 75.2 °F 66% 29.82 in 10.0 mi SSW 10.4 mph - N/A   Clear
12:15 PM 87.8 °F 95.6 °F 73.4 °F 62% 29.81 in 10.0 mi SSW 17.3 mph - N/A   Clear
12:35 PM 87.8 °F 95.6 °F 73.4 °F 62% 29.80 in 10.0 mi SSW 19.6 mph - N/A   Clear
12:55 PM 89.6 °F 99.8 °F 75.2 °F 62% 29.80 in 10.0 mi SSW 13.8 mph 20.7 mph N/A   Clear
1:15 PM 89.6 °F 98.2 °F 73.4 °F 59% 29.79 in 10.0 mi SSW 17.3 mph 24.2 mph N/A   Clear
1:35 PM 91.4 °F 102.5 °F 75.2 °F 59% 29.79 in 10.0 mi SSW 12.7 mph 24.2 mph N/A   Clear
1:55 PM 91.4 °F 100.1 °F 73.4 °F 55% 29.78 in 10.0 mi SSW 15.0 mph 25.3 mph N/A   Clear
2:15 PM 91.4 °F 100.1 °F 73.4 °F 55% 29.78 in 10.0 mi SSW 19.6 mph 28.8 mph N/A   Clear
2:35 PM 91.4 °F 100.1 °F 73.4 °F 55% 29.79 in 10.0 mi SSW 16.1 mph 26.5 mph N/A   Clear
2:55 PM 93.2 °F 102.4 °F 73.4 °F 52% 29.79 in 10.0 mi SSW 19.6 mph - N/A   Clear
3:15 PM 93.2 °F 102.4 °F 73.4 °F 52% 29.79 in 10.0 mi South 16.1 mph 21.9 mph N/A   Clear
3:35 PM 93.2 °F 102.4 °F 73.4 °F 52% 29.78 in 10.0 mi South 18.4 mph - N/A   Clear
3:55 PM 93.2 °F 102.4 °F 73.4 °F 52% 29.78 in 10.0 mi South 13.8 mph 23.0 mph N/A   Clear
4:15 PM 93.2 °F 102.4 °F 73.4 °F 52% 29.78 in 10.0 mi South 13.8 mph 23.0 mph N/A   Clear
4:30 PM 93.2 °F 102.4 °F 73.4 °F 52% 29.79 in 10.0 mi SSW 16.1 mph 24.2 mph N/A   Clear
4:55 PM 93.2 °F 102.4 °F 73.4 °F 52% 29.79 in 10.0 mi South 15.0 mph - N/A   Clear
5:15 PM 91.4 °F 100.1 °F 73.4 °F 55% 29.79 in 10.0 mi South 13.8 mph 23.0 mph N/A   Clear
5:35 PM 91.4 °F 100.1 °F 73.4 °F 55% 29.79 in 10.0 mi South 15.0 mph - N/A   Clear
5:55 PM 91.4 °F 100.1 °F 73.4 °F 55% 29.80 in 10.0 mi South 12.7 mph - N/A   Clear
6:15 PM 91.4 °F 100.1 °F 73.4 °F 55% 29.80 in 10.0 mi SSW 11.5 mph - N/A   Partly Cloudy
6:35 PM 89.6 °F 98.2 °F 73.4 °F 59% 29.81 in 10.0 mi South 10.4 mph - N/A   Partly Cloudy
6:55 PM 87.8 °F 95.6 °F 73.4 °F 62% 29.81 in 10.0 mi South 11.5 mph - N/A   Clear
7:15 PM 86.0 °F 93.4 °F 73.4 °F 66% 29.82 in 10.0 mi South 9.2 mph - N/A   Scattered Clouds
7:35 PM 86.0 °F 91.8 °F 71.6 °F 62% 29.83 in 10.0 mi South 8.1 mph - N/A   Overcast
7:55 PM 84.2 °F 90.9 °F 73.4 °F 70% 29.84 in 10.0 mi NNW 9.2 mph - N/A   Overcast
8:15 PM 82.4 °F 89.5 °F 75.2 °F 79% 29.85 in 10.0 mi North 9.2 mph - N/A   Overcast
8:35 PM 80.6 °F 86.2 °F 75.2 °F 84% 29.87 in 10.0 mi North 5.8 mph 12.7 mph N/A   Mostly Cloudy
8:55 PM 80.6 °F 85.4 °F 73.4 °F 79% 29.88 in 10.0 mi North 11.5 mph - N/A   Unknown
9:15 PM 78.8 °F - 73.4 °F 83% 29.90 in 10.0 mi North 8.1 mph - N/A   Clear
9:35 PM 77.0 °F - 73.4 °F 89% 29.91 in 10.0 mi North 4.6 mph - N/A   Unknown
10:15 PM 77.0 °F - 73.4 °F 89% 29.92 in 10.0 mi North 5.8 mph - N/A   Clear
10:35 PM 75.2 °F - 73.4 °F 94% 29.93 in 10.0 mi Variable 5.8 mph - N/A   Partly Cloudy
10:55 PM 75.2 °F - 71.6 °F 89% 29.93 in 10.0 mi North 5.8 mph - N/A   Unknown
11:15 PM 73.4 °F - 71.6 °F 94% 29.93 in 10.0 mi Calm Calm - N/A   Unknown
11:35 PM 73.4 °F - 71.6 °F 94% 29.94 in 10.0 mi Variable 3.5 mph - N/A   Scattered Clouds
11:55 PM 73.4 °F - 71.6 °F 94% 29.96 in 10.0 mi North 5.8 mph - N/A   Partly Cloudy